User: anonymous   Login
Location: Albany
(35.0170°S, 117.8920°E)
Time: 22:30:35
(UTC+08:00)
Language:

Courier 1B - Orbit

View from above orbital plane
View from above orbital plane
View from above satellite
View from above satellite

Ground track
Ground track

The orbit data is extracted from the following two-line orbital elements,

1 00058U 60013A   21126.64333070  .00000101  00000-0  19878-4 0  9990
2 00058  28.3279 255.0007 0165017 225.0212 133.6850 13.46326724982204
Epoch (UTC): 06 May 2021 15:26:23
Eccentricity: 0.0165017
inclination: 28.3279°
perigee height: 962 km
apogee height: 1209 km
right ascension of ascending node: 255.0007°
argument of perigee: 225.0212°
revolutions per day: 13.46326724
mean anomaly at epoch: 133.6850°
orbit number at epoch: 98220

The dashed part of the orbit path shows where the satellite is in the earth's shadow,  

DLR